Regional Weather Roundup
Issued by NWS

Home | Current Version | Previous Version | Graphics & Text | Print | Product List | Glossary On
Versions: 1 2 3 4 5 6 7 8 9 10 11 12 13 14 15 16 17 18 19 20 21 22 23 24 25 26 27 28 29 30 31 32 33 34 35 36 37 38 39 40 41 42 43 44 45 46 47 48 49 50
000
ASUS43 KLOT 250904
RWRIL

ILLINOIS REGIONAL WEATHER ROUNDUP
NATIONAL WEATHER SERVICE CHICAGO/ROMEOVILLE IL
400 AM CDT SUN JUN 25 2017

NOTE: "FAIR" INDICATES FEW OR NO CLOUDS BELOW 12,000 FEET WITH NO
SIGNIFICANT WEATHER AND/OR OBSTRUCTIONS TO VISIBILITY.

* THESE STATIONS ARE NOT UNDER NWS QUALITY CONTROL. THEY ALSO MAY NOT
  REPORT WEATHER SUCH AS PRECIPITATION OR FOG.

ILZ001-002-007-009-015-016-024-251000-
NORTHWEST ILLINOIS

CITY           SKY/WX    TMP DP  RH WIND       PRES   REMARKS
MOLINE         CLEAR     53  49  86 SW3       30.11S
STERLING*      CLEAR     53  51  93 W6        30.10S
SAVANNA*       CLEAR     52  49  91 CALM      30.10R
$$

ILZ003-004-008-010-011-017-018-251000-
NORTH CENTRAL ILLINOIS

CITY           SKY/WX    TMP DP  RH WIND       PRES   REMARKS
ROCKFORD       PTCLDY    53  49  86 W8        30.09S
FREEPORT*      CLEAR     51  49  94 W5        30.09F
ROCHELLE*      CLEAR     51  49  92 W6        30.09S
DE KALB*       CLEAR     54  49  83 W9        30.07S
PERU*          CLEAR     52  48  88 W8        30.10S
$$

ILZ005-006-012>014-019>023-251000-
NORTHEAST ILLINOIS

CITY           SKY/WX    TMP DP  RH WIND       PRES   REMARKS
CHICAGO-OHARE  PTCLDY    56  47  71 W8        30.04F
CHICAGO-MIDWAY CLEAR     58  47  66 W8        30.05S
AURORA         CLEAR     51  48  89 W6        30.08S
LANSING*       CLEAR     58  44  59 NW7       30.07R
JOLIET*        CLEAR     56  51  83 W3        30.08S
WAUKEGAN       CLEAR     53  49  86 VRB7      30.03S
DUPAGE AIRPORT CLEAR     53  49  86 W6        30.05F
WHEELING       CLEAR     55  50  83 W6        30.06S
MORRIS*        CLEAR     52  48  86 W6        30.07S
ROMEOVILLE*    CLEAR     54  46  74 W7        30.07S
NORTHERLY ISL    N/A     59  45  59 W6          N/A
$$

LMZ740>746-251000-
SOUTHERN LAKE MICHIGAN

STATION/POSITION SKY/WX   TEMP    WIND        PRES    VSBY  WAVE
                          AIR SEA DIR/SP/G                  HT/PER
                          (F)     (DEG/KT/KT) (MB)    (MI)  (FT/S)
SOUTHERN BUOY              58 61  310/ 19/ 23 1016.0          3/ 5
WILMETTE HARBOR            58 64  280/ 12/ 16   N/A           1/ 2
HARRISON CRIB              60     280/ 13/ 14   N/A
BURNHAM HARBOR             59                   N/A
CALUMET HARBOR             59     290/  5/  9 1017.3R
BURNS HARBOR               63     290/ 19/ 23 1017.6S
MICHIGAN CITY              61     270/ 22/ 24   N/A
MICHIGAN CITY 6N           62 67  300/ 19/ 25   N/A           4/ 4
ST. JOSEPH                 62 68  320/ 19/ 25 1017.0R         4/ 4
$$

ILZ025>027-034>036-040-047-049-050-058-095>099-251000-
WEST-CENTRAL ILLINOIS

CITY           SKY/WX    TMP DP  RH WIND       PRES   REMARKS
QUINCY         MOCLDY    55  51  86 SW5       30.16R
GALESBURG*     CLEAR     51  48  91 CALM      30.14S
MACOMB*        CLEAR     51  49  93 SW6       30.17R
JACKSONVILLE*  CLEAR     58  48  69 W5        30.15R
PITTSFIELD*    PTCLDY    58  50  75 W3        30.17R
$$

ILZ028>032-037-038-041>044-048-051>054-059>061-251000-
CENTRAL ILLINOIS

CITY           SKY/WX    TMP DP  RH WIND       PRES   REMARKS
PONTIAC        CLEAR     55  53  94 W5        30.10S
BLOOMINGTON    CLEAR     56  47  71 W7        30.12S
DECATUR        CLEAR     59  47  64 W12G20    30.13R
PEORIA         CLEAR     53  50  89 CALM      30.12S
LACON*         CLEAR     52  50  94 CALM      30.10S
LINCOLN*       CLEAR     60  48  65 W3        30.13R
SPRINGFIELD    PTCLDY    60  49  66 W8        30.14S
TAYLORVILLE    CLEAR     59  46  63 SW8       30.13R
$$

ILZ033-039-045-046-055>057-062-063-251000-
EAST-CENTRAL ILLINOIS

CITY           SKY/WX    TMP DP  RH WIND       PRES   REMARKS
CHAMPAIGN      PTCLDY    56  46  69 W8        30.12R
RANTOUL*       PTCLDY    59  48  68 W7        30.10S
MATTOON        PTCLDY    60  49  66 SW8       30.11S
$$

ILZ079-100>102-251000-
SOUTHWEST ILLINOIS

CITY           SKY/WX    TMP DP  RH WIND       PRES   REMARKS
ALTON          PTCLDY    55  53  92 SW6       30.17R
BELLEVILLE     CLEAR     55  50  83 CALM      30.17S
CAHOKIA*       CLEAR     62  48  60 VRB5      30.16S
SPARTA*        CLEAR     56  49  78 CALM      30.19S
$$

ILZ064>066-069>071-074>076-080>082-084>086-088>090-092>094-251000-
SOUTH-CENTRAL ILLINOIS

CITY           SKY/WX    TMP DP  RH WIND       PRES   REMARKS
CARBONDALE     CLEAR     55  54  96 S3        30.18S
CAIRO*         PTCLDY    59  58  97 CALM      30.19S
EFFINGHAM*     PTCLDY    57  52  84 S5        30.16S
MARION         CLEAR     59  59 100 SW3       30.19S
MT. VERNON     CLEAR     51  51 100 CALM      30.17S
CENTRALIA*     CLEAR     56  51  84 CALM      30.16S
SALEM*         CLEAR     58  50  74 CALM      30.16R
METROPOLIS*    PTCLDY    58  57  98 CALM      30.19S
$$

ILZ067-068-072-073-078-083-087-091-251000-
SOUTHEAST ILLINOIS

CITY           SKY/WX    TMP DP  RH WIND       PRES   REMARKS
LAWRENCEVILLE  CLEAR     58  53  84 W5        30.15R
FLORA*         CLEAR     56  51  85 SW6       30.16S
FAIRFIELD*     CLEAR     55  54  99 CALM      30.16R
HARRISBURG*    CLEAR     55  55  98 CALM      30.18S
ROBINSON*      CLEAR     54  51  87 CALM      30.15R
CARMI*         CLEAR     57  54  89 CALM      30.15F
$$

ABBREVIATIONS USED IN REMARKS
   TC - TEMPERATURE IN CELSIUS
  WCI - WIND CHILL INDEX
   HX - HEAT INDEX
  VSB - VISIBILITY
$$





USA.gov is the U.S. government's official web portal to all federal, state and local government web resources and services.